Location: Newark
(48.6461°N, 4.3644°W)
Time: 17:14:37
(UTC+00:00)

Transit 4A - Pass Details

Date: 26 January 2020
Orbit: 872 x 973 km, 66.8° (Epoch: 22 February)

Event Time Altitude Azimuth Distance (km) Brightness Sun altitude
Rises 07:58:24 0° 239° (WSW) 3,534 10.6 -0.4°
Reaches altitude 10° 08:01:05 10° 246° (WSW) 2,580 9.9 0.0°
Maximum altitude 08:06:41 41° 316° (NW) 1,266 8.3 0.8°
Drops below altitude 10° 08:12:14 10° 27° (NNE) 2,543 10.2 1.6°
Sets 08:14:52 0° 34° (NE) 3,478 10.9 2.0°
